Flag for U.S.A. Weather past 2 weeks in Sitka, Alaska, U.S.A.

Now
45 °F

Scattered clouds.


Feels Like: 39 °F
Forecast: 37 / 46 °F
Wind: 12 mph from Northwest

Location: Sitka Airport


UV Index: 3 (Moderate)

Visibility: 10 mi


Pressure: 29.72 "Hg

Humidity: 74%

Dew point: 37 °F

Location of SitkaLocation

Historic Weather in Sitka

°F

Sitka temperature yesterday

Maximum temperature yesterday: 50 °F (at 11:53 AM)
Minimum temperature yesterday: 35 °F (at 1:53 AM)
Average temperature yesterday: 42 °F

Past Weeks' High & Low Weather Summary

 TemperatureHumidityPressure
High52 °F (Apr 16, 2:53 PM)100% (Apr 9, 11:52 PM)30.35 "Hg (Apr 9, 11:52 PM)
Low31 °F (Apr 12, 5:53 AM)39% (Apr 11, 4:53 PM)29.28 "Hg (Apr 17, 7:53 AM)
Average43 °F74%29.82 "Hg
* Reported Apr 8 6:53 PM — Apr 23 6:00 PM, Sitka, Weather by CustomWeather, © 2014

Note: Actual official high and low records may vary slightly from our data, if they occured in-between our weather recording intervals... More about our weather records

Advertising

Historic Weather Conditions — Data for Previous 24 hours

 ConditionsComfort  
Time TempWeatherWind HumidityBarometerVisibility
6:00 PM
Apr 23
44 °FBroken clouds.10 mph76%29.73 "Hg10 mi
4:53 PM44 °FPartly sunny.8 mph76%29.74 "Hg10 mi
3:53 PM45 °FPartly sunny.7 mph74%29.75 "Hg10 mi
2:53 PM45 °FPartly sunny.7 mph74%29.76 "Hg10 mi
1:53 PM45 °FPartly sunny.7 mph76%29.77 "Hg10 mi
12:53 PM44 °FPartly sunny.8 mph79%29.78 "Hg10 mi
11:53 AM44 °FMore clouds than sun.6 mph79%29.77 "Hg10 mi
10:53 AM44 °FBroken clouds.5 mph76%29.77 "Hg10 mi
9:53 AM43 °FCloudy.3 mph79%29.77 "Hg10 mi
8:53 AM43 °FOvercast.3 mph82%29.77 "Hg10 mi
7:53 AM42 °FMostly cloudy.5 mph85%29.77 "Hg10 mi
6:53 AM41 °FOvercast.5 mph93%29.77 "Hg8 mi
5:53 AM42 °FMostly cloudy.8 mph85%29.77 "Hg8 mi
4:53 AM42 °FOvercast.8 mph85%29.77 "Hg10 mi
3:53 AM42 °FMostly cloudy.10 mph85%29.77 "Hg10 mi
2:53 AM43 °FMostly cloudy.10 mph82%29.77 "Hg10 mi
1:53 AM43 °FOvercast.8 mph79%29.76 "Hg10 mi
12:53 AM43 °FMostly cloudy.9 mph79%29.76 "Hg10 mi
12:02 AM43 °FMostly cloudy.8 mph79%29.76 "Hg10 mi
11:53 PM
Apr 22
43 °FMostly cloudy.9 mph79%29.75 "Hg10 mi
10:53 PM43 °FOvercast.12 mph79%29.76 "Hg10 mi
9:53 PM43 °FOvercast.13 mph79%29.76 "Hg10 mi
8:53 PM43 °FPartly sunny.14 mph79%29.75 "Hg10 mi
7:53 PM44 °FPartly sunny.15 mph79%29.74 "Hg10 mi
Weather by CustomWeather, © 2014

See weather overview